EZY38PZ EKCH-EGPH

Flight info

Callsign EZY38PZ
Flight time 1h 37m
Altitude 38000
Route ODDON DCT PETIL DCT SURAT DCT ROBEM DCT AGPED
Aircraft A320/M-SDE3FGHIRWY/LB1

Departure

Time 2026-05-05 18:24
Airport Copenhagen Kastrup Airport (EKCH)

Arrival

Time 2026-05-05 20:01
Airport Edinburgh Airport (EGPH)
Time Latitude Longitude Altitude Speed Heading
2026-05-05 17:55 55.62518 12.65573 24 ft 0 kts 24°
2026-05-05 18:14 55.62504 12.65562 24 ft 3 kts 21°
2026-05-05 18:14 55.62484 12.65549 25 ft 3 kts 14°
2026-05-05 18:14 55.62463 12.65543 26 ft 3 kts 354°
2026-05-05 18:15 55.62447 12.65551 27 ft 3 kts 298°
2026-05-05 18:15 55.62444 12.65561 28 ft 0 kts 269°
2026-05-05 18:17 55.62444 12.65529 26 ft 8 kts 269°
2026-05-05 18:17 55.62443 12.65381 24 ft 13 kts 269°
2026-05-05 18:18 55.62434 12.65234 24 ft 11 kts 241°
2026-05-05 18:18 55.62368 12.65202 24 ft 10 kts 180°
2026-05-05 18:18 55.62305 12.65199 24 ft 9 kts 187°
2026-05-05 18:18 55.62237 12.65197 24 ft 12 kts 185°
2026-05-05 18:19 55.62170 12.65133 24 ft 10 kts 213°
2026-05-05 18:19 55.62107 12.65060 24 ft 12 kts 213°
2026-05-05 18:19 55.62027 12.64966 24 ft 16 kts 213°
2026-05-05 18:19 55.61920 12.64844 25 ft 19 kts 213°
2026-05-05 18:20 55.61813 12.64721 24 ft 18 kts 213°
2026-05-05 18:20 55.61715 12.64608 24 ft 16 kts 213°
2026-05-05 18:20 55.61627 12.64507 25 ft 14 kts 213°
2026-05-05 18:20 55.61538 12.64404 24 ft 17 kts 213°
2026-05-05 18:21 55.61430 12.64280 24 ft 19 kts 213°
2026-05-05 18:21 55.61325 12.64159 24 ft 18 kts 213°
2026-05-05 18:21 55.61212 12.64029 24 ft 21 kts 212°
2026-05-05 18:21 55.61078 12.63875 24 ft 23 kts 213°
2026-05-05 18:22 55.60947 12.63724 24 ft 22 kts 213°
2026-05-05 18:22 55.60843 12.63607 26 ft 12 kts 214°
2026-05-05 18:22 55.60794 12.63598 25 ft 6 kts 152°
2026-05-05 18:22 55.60766 12.63643 24 ft 6 kts 133°
2026-05-05 18:23 55.60719 12.63736 24 ft 14 kts 131°
2026-05-05 18:23 55.60679 12.63848 27 ft 6 kts 86°
2026-05-05 18:23 55.60703 12.63905 28 ft 8 kts 42°
2026-05-05 18:23 55.60901 12.64205 26 ft 74 kts 41°
2026-05-05 18:24 55.61445 12.65054 26 ft 132 kts 41°
2026-05-05 18:24 55.62236 12.66276 239 ft 160 kts 42°
2026-05-05 18:24 55.63072 12.67618 912 ft 165 kts 41°
2026-05-05 18:24 55.63941 12.68975 1568 ft 172 kts 39°
2026-05-05 18:25 55.64907 12.70449 1884 ft 194 kts 35°
2026-05-05 18:25 55.65737 12.71154 2079 ft 210 kts
2026-05-05 18:25 55.67813 12.70632 2742 ft 240 kts 348°
2026-05-05 18:25 55.69464 12.69943 3605 ft 247 kts 350°
2026-05-05 18:26 55.71189 12.69540 4517 ft 252 kts 356°
2026-05-05 18:26 55.72951 12.69354 5421 ft 257 kts 358°
2026-05-05 18:26 55.74763 12.69231 6295 ft 262 kts 356°
2026-05-05 18:26 55.76547 12.68527 7107 ft 267 kts 333°
2026-05-05 18:27 55.78008 12.66536 7986 ft 267 kts 307°
2026-05-05 18:27 55.78837 12.63609 8831 ft 269 kts 282°
2026-05-05 18:27 55.78873 12.60310 9743 ft 270 kts 261°
2026-05-05 18:27 55.78545 12.56966 10336 ft 284 kts 260°
2026-05-05 18:28 55.77797 12.49558 11150 ft 318 kts 260°
2026-05-05 18:28 55.77405 12.45668 11912 ft 321 kts 260°
2026-05-05 18:28 55.77012 12.41747 12703 ft 324 kts 260°
2026-05-05 18:29 55.76616 12.37799 13492 ft 326 kts 260°
2026-05-05 18:29 55.76216 12.33808 14216 ft 329 kts 260°
2026-05-05 18:29 55.75812 12.29798 14912 ft 331 kts 260°
2026-05-05 18:29 55.75407 12.25763 15604 ft 333 kts 260°
2026-05-05 18:30 55.74996 12.21701 16284 ft 335 kts 259°
2026-05-05 18:30 55.74581 12.17613 16966 ft 338 kts 260°
2026-05-05 18:30 55.74169 12.13548 17627 ft 340 kts 259°
2026-05-05 18:30 55.73741 12.09346 18291 ft 343 kts 259°
2026-05-05 18:31 55.73320 12.05231 18843 ft 345 kts 259°
2026-05-05 18:31 55.72889 12.01030 19403 ft 347 kts 259°
2026-05-05 18:31 55.72454 11.96802 19962 ft 349 kts 259°
2026-05-05 18:31 55.72012 11.92551 20468 ft 352 kts 259°
2026-05-05 18:32 55.71566 11.88272 21019 ft 354 kts 259°
2026-05-05 18:32 55.71117 11.83970 21567 ft 356 kts 259°
2026-05-05 18:32 55.70664 11.79642 22099 ft 358 kts 259°
2026-05-05 18:32 55.70208 11.75288 22605 ft 360 kts 259°
2026-05-05 18:33 55.69749 11.70908 23120 ft 362 kts 259°
2026-05-05 18:33 55.69285 11.66504 23614 ft 365 kts 259°
2026-05-05 18:33 55.68814 11.62072 24026 ft 367 kts 259°
2026-05-05 18:33 55.68339 11.57619 24430 ft 369 kts 259°
2026-05-05 18:34 55.67859 11.53141 24822 ft 371 kts 259°
2026-05-05 18:34 55.67375 11.48633 25208 ft 374 kts 259°
2026-05-05 18:34 55.66888 11.44096 25586 ft 376 kts 259°
2026-05-05 18:34 55.66394 11.39536 25960 ft 378 kts 258°
2026-05-05 18:35 55.65895 11.34951 26341 ft 380 kts 258°
2026-05-05 18:35 55.65384 11.30279 26721 ft 383 kts 258°
2026-05-05 18:35 55.64876 11.25644 27086 ft 385 kts 258°
2026-05-05 18:35 55.64364 11.20977 27439 ft 388 kts 258°
2026-05-05 18:36 55.63847 11.16268 27760 ft 391 kts 258°
2026-05-05 18:36 55.63325 11.11527 28112 ft 394 kts 258°
2026-05-05 18:36 55.62798 11.06764 28459 ft 396 kts 258°
2026-05-05 18:36 55.62264 11.01968 28789 ft 398 kts 258°
2026-05-05 18:37 55.61727 10.97153 29126 ft 400 kts 258°
2026-05-05 18:37 55.61185 10.92329 29429 ft 402 kts 258°
2026-05-05 18:37 55.60635 10.87465 29730 ft 404 kts 258°
2026-05-05 18:37 55.60080 10.82577 30029 ft 407 kts 258°
2026-05-05 18:38 55.59520 10.77666 30283 ft 409 kts 258°
2026-05-05 18:38 55.58956 10.72732 30525 ft 411 kts 258°
2026-05-05 18:38 55.58469 10.67750 30784 ft 413 kts 263°
2026-05-05 18:38 55.58409 10.62674 31123 ft 414 kts 272°
2026-05-05 18:39 55.58774 10.57621 31462 ft 415 kts 276°
2026-05-05 18:39 55.59215 10.52582 31802 ft 415 kts 276°
2026-05-05 18:39 55.59651 10.47548 32144 ft 414 kts 276°
2026-05-05 18:39 55.60083 10.42515 32478 ft 414 kts 276°
2026-05-05 18:40 55.60509 10.37484 32806 ft 414 kts 276°
2026-05-05 18:40 55.60932 10.32453 33137 ft 414 kts 276°
2026-05-05 18:40 55.61350 10.27417 33472 ft 413 kts 276°
2026-05-05 18:40 55.61768 10.22391 33804 ft 413 kts 276°
2026-05-05 18:41 55.62185 10.17361 34108 ft 413 kts 276°
2026-05-05 18:41 55.62600 10.12335 34388 ft 413 kts 276°
2026-05-05 18:41 55.63014 10.07315 34697 ft 412 kts 276°
2026-05-05 18:41 55.63424 10.02296 34988 ft 411 kts 276°
2026-05-05 18:42 55.63830 9.97288 35256 ft 411 kts 275°
2026-05-05 18:42 55.64235 9.92279 35506 ft 411 kts 276°
2026-05-05 18:42 55.64642 9.87266 35750 ft 411 kts 276°
2026-05-05 18:42 55.65048 9.82258 35990 ft 411 kts 275°
2026-05-05 18:43 55.65450 9.77243 36228 ft 411 kts 275°
2026-05-05 18:43 55.65846 9.72234 36453 ft 411 kts 275°
2026-05-05 18:43 55.66240 9.67223 36685 ft 411 kts 275°
2026-05-05 18:43 55.66634 9.62211 36913 ft 411 kts 275°
2026-05-05 18:44 55.66894 9.58891 37057 ft 411 kts 275°
2026-05-05 18:44 55.67286 9.53880 37285 ft 411 kts 275°
2026-05-05 18:44 55.67677 9.48869 37505 ft 410 kts 275°
2026-05-05 18:44 55.68061 9.43859 37712 ft 410 kts 275°
2026-05-05 18:45 55.68444 9.38847 37909 ft 411 kts 275°
2026-05-05 18:45 55.68825 9.33822 37973 ft 411 kts 275°
2026-05-05 18:45 55.69582 9.23785 37975 ft 411 kts 275°
2026-05-05 18:46 55.70327 9.13740 37975 ft 411 kts 275°
2026-05-05 18:46 55.71067 9.03700 37975 ft 411 kts 275°
2026-05-05 18:47 55.71797 8.93648 37973 ft 411 kts 275°
2026-05-05 18:47 55.72519 8.83589 37972 ft 411 kts 275°
2026-05-05 18:48 55.73238 8.73523 37975 ft 411 kts 275°
2026-05-05 18:48 55.73947 8.63380 37975 ft 411 kts 274°
2026-05-05 18:49 55.74648 8.53297 37977 ft 412 kts 274°
2026-05-05 18:49 55.75340 8.43279 37987 ft 412 kts 274°
2026-05-05 18:50 55.76021 8.33183 37992 ft 412 kts 274°
2026-05-05 18:50 55.76693 8.23083 37991 ft 412 kts 274°
2026-05-05 18:51 55.77329 8.13424 37990 ft 412 kts 274°
2026-05-05 18:51 55.77989 8.03342 37996 ft 412 kts 274°
2026-05-05 18:52 55.78633 7.93437 37996 ft 412 kts 274°
2026-05-05 18:52 55.79223 7.84211 38000 ft 412 kts 274°
2026-05-05 18:53 55.79860 7.74070 37998 ft 413 kts 274°
2026-05-05 18:53 55.80495 7.63930 38001 ft 413 kts 274°
2026-05-05 18:54 55.81118 7.53780 38004 ft 413 kts 274°
2026-05-05 18:54 55.81721 7.43614 38003 ft 413 kts 274°
2026-05-05 18:55 55.82323 7.33462 38003 ft 413 kts 274°
2026-05-05 18:55 55.82923 7.23294 38005 ft 413 kts 274°
2026-05-05 18:56 55.83512 7.13129 38004 ft 413 kts 274°
2026-05-05 18:56 55.84091 7.02946 38002 ft 413 kts 273°
2026-05-05 18:57 55.84663 6.92782 38000 ft 413 kts 273°
2026-05-05 18:57 55.85228 6.82600 38001 ft 414 kts 273°
2026-05-05 18:58 55.85786 6.72406 38018 ft 413 kts 273°
2026-05-05 18:58 55.86335 6.62224 38013 ft 413 kts 273°
2026-05-05 18:59 55.86877 6.52043 38012 ft 413 kts 273°
2026-05-05 18:59 55.87403 6.41854 38010 ft 413 kts 273°
2026-05-05 19:00 55.87928 6.31667 38016 ft 413 kts 273°
2026-05-05 19:00 55.88438 6.21478 38017 ft 413 kts 273°
2026-05-05 19:01 55.88937 6.11276 38023 ft 414 kts 273°
2026-05-05 19:01 55.89431 6.01070 38013 ft 413 kts 273°
2026-05-05 19:02 55.89915 5.90867 38008 ft 413 kts 272°
2026-05-05 19:02 55.90400 5.80668 38007 ft 413 kts 273°
2026-05-05 19:03 55.90877 5.70453 38007 ft 413 kts 272°
2026-05-05 19:03 55.91329 5.60245 38012 ft 413 kts 272°
2026-05-05 19:04 55.91781 5.50031 38010 ft 413 kts 272°
2026-05-05 19:04 55.92231 5.39814 38009 ft 413 kts 272°
2026-05-05 19:05 55.92674 5.29594 38008 ft 413 kts 272°
2026-05-05 19:05 55.93103 5.19369 38012 ft 414 kts 272°
2026-05-05 19:06 55.93521 5.09158 38015 ft 414 kts 272°
2026-05-05 19:06 55.93877 4.98916 38015 ft 412 kts 268°
2026-05-05 19:07 55.93773 4.88691 38017 ft 412 kts 268°
2026-05-05 19:07 55.93665 4.78465 38012 ft 412 kts 267°
2026-05-05 19:08 55.93543 4.68238 38018 ft 412 kts 267°
2026-05-05 19:08 55.93409 4.58010 38019 ft 413 kts 267°
2026-05-05 19:09 55.93278 4.47781 38021 ft 413 kts 267°
2026-05-05 19:09 55.93135 4.37544 38018 ft 413 kts 267°
2026-05-05 19:10 55.92976 4.27289 38021 ft 413 kts 267°
2026-05-05 19:10 55.92816 4.17041 38025 ft 414 kts 267°
2026-05-05 19:11 55.92652 4.06791 38015 ft 414 kts 267°
2026-05-05 19:11 55.92469 3.96539 38021 ft 414 kts 266°
2026-05-05 19:12 55.92275 3.86285 38027 ft 414 kts 266°
2026-05-05 19:12 55.92077 3.76029 38006 ft 414 kts 266°
2026-05-05 19:13 55.91867 3.65762 38012 ft 414 kts 266°
2026-05-05 19:13 55.91651 3.55432 38001 ft 414 kts 266°
2026-05-05 19:14 55.91160 3.45299 37999 ft 413 kts 261°
2026-05-05 19:14 55.90321 3.35170 38028 ft 413 kts 261°
2026-05-05 19:15 55.89475 3.25041 38024 ft 413 kts 261°
2026-05-05 19:15 55.88621 3.14909 38038 ft 413 kts 261°
2026-05-05 19:16 55.87767 3.04784 38036 ft 413 kts 261°
2026-05-05 19:16 55.86906 2.94663 38034 ft 413 kts 261°
2026-05-05 19:17 55.86025 2.84543 38038 ft 413 kts 260°
2026-05-05 19:17 55.85139 2.74431 38039 ft 414 kts 260°
2026-05-05 19:18 55.84247 2.64314 38041 ft 414 kts 260°
2026-05-05 19:18 55.83341 2.54208 38040 ft 414 kts 260°
2026-05-05 19:19 55.82430 2.44079 38046 ft 414 kts 260°
2026-05-05 19:19 55.81510 2.33963 38045 ft 415 kts 260°
2026-05-05 19:20 55.80587 2.23845 38058 ft 415 kts 260°
2026-05-05 19:20 55.79647 2.13732 38055 ft 415 kts 260°
2026-05-05 19:21 55.78700 2.03631 38055 ft 414 kts 260°
2026-05-05 19:21 55.77752 1.93536 38058 ft 414 kts 260°
2026-05-05 19:22 55.76793 1.83444 38016 ft 415 kts 259°
2026-05-05 19:22 55.75818 1.73329 38029 ft 416 kts 259°
2026-05-05 19:23 55.74833 1.63209 38043 ft 416 kts 259°
2026-05-05 19:23 55.73843 1.53077 38055 ft 417 kts 259°
2026-05-05 19:24 55.73011 1.44654 38055 ft 417 kts 259°
2026-05-05 19:24 55.71999 1.34528 38060 ft 417 kts 259°
2026-05-05 19:25 55.70983 1.24406 38066 ft 417 kts 259°
2026-05-05 19:25 55.69958 1.14283 38064 ft 417 kts 259°
2026-05-05 19:26 55.68920 1.04160 38073 ft 418 kts 259°
2026-05-05 19:26 55.67878 0.94035 38073 ft 418 kts 259°
2026-05-05 19:27 55.66824 0.83880 38074 ft 418 kts 259°
2026-05-05 19:27 55.65770 0.73780 38072 ft 418 kts 259°
2026-05-05 19:28 55.64704 0.63654 38081 ft 418 kts 259°
2026-05-05 19:28 55.63630 0.53542 38088 ft 418 kts 259°
2026-05-05 19:29 55.62536 0.43435 38092 ft 418 kts 259°
2026-05-05 19:29 55.61444 0.33330 38089 ft 418 kts 259°
2026-05-05 19:30 55.60351 0.23225 38088 ft 418 kts 259°
2026-05-05 19:30 55.59238 0.13130 38094 ft 418 kts 258°
2026-05-05 19:31 55.58108 0.03028 38091 ft 418 kts 258°
2026-05-05 19:31 55.56991 -0.07054 38099 ft 418 kts 259°
2026-05-05 19:32 55.55866 -0.17122 38095 ft 417 kts 259°
2026-05-05 19:32 55.54724 -0.27177 38092 ft 417 kts 258°
2026-05-05 19:33 55.53568 -0.37222 38095 ft 417 kts 258°
2026-05-05 19:33 55.52411 -0.47259 38099 ft 417 kts 258°
2026-05-05 19:34 55.51246 -0.57300 38072 ft 418 kts 258°
2026-05-05 19:35 55.49934 -0.72481 37581 ft 419 kts 268°
2026-05-05 19:35 55.49889 -0.77618 37305 ft 418 kts 268°
2026-05-05 19:35 55.49846 -0.82743 36988 ft 419 kts 268°
2026-05-05 19:35 55.49802 -0.87925 35968 ft 426 kts 268°
2026-05-05 19:36 55.49755 -0.93195 34997 ft 432 kts 268°
2026-05-05 19:36 55.49707 -0.98471 34386 ft 429 kts 267°
2026-05-05 19:36 55.49658 -1.03717 33475 ft 426 kts 267°
2026-05-05 19:36 55.49606 -1.08936 32260 ft 425 kts 267°
2026-05-05 19:37 55.49552 -1.14024 31544 ft 416 kts 268°
2026-05-05 19:37 55.49495 -1.19148 31032 ft 409 kts 268°
2026-05-05 19:37 55.49435 -1.24143 30455 ft 406 kts 268°
2026-05-05 19:37 55.49377 -1.29097 29839 ft 403 kts 268°
2026-05-05 19:38 55.49318 -1.34007 29274 ft 397 kts 268°
2026-05-05 19:38 55.49259 -1.38843 28726 ft 392 kts 268°
2026-05-05 19:38 55.49197 -1.43620 28185 ft 387 kts 268°
2026-05-05 19:38 55.49132 -1.48340 27649 ft 383 kts 268°
2026-05-05 19:39 55.49068 -1.53005 27117 ft 379 kts 268°
2026-05-05 19:39 55.49002 -1.57624 26599 ft 375 kts 268°
2026-05-05 19:39 55.48934 -1.62186 26088 ft 371 kts 268°
2026-05-05 19:39 55.48864 -1.66710 25592 ft 367 kts 268°
2026-05-05 19:40 55.48795 -1.71117 25099 ft 364 kts 268°
2026-05-05 19:40 55.48724 -1.75558 24629 ft 360 kts 268°
2026-05-05 19:40 55.48652 -1.79956 24164 ft 357 kts 268°
2026-05-05 19:40 55.48582 -1.84309 23716 ft 354 kts 268°
2026-05-05 19:41 55.48509 -1.88623 23229 ft 350 kts 268°
2026-05-05 19:41 55.48436 -1.92928 22798 ft 345 kts 268°
2026-05-05 19:41 55.48366 -1.97134 22390 ft 343 kts 269°
2026-05-05 19:41 55.48673 -2.01401 21841 ft 356 kts 285°
2026-05-05 19:42 55.49440 -2.05510 20441 ft 363 kts 288°
2026-05-05 19:42 55.50316 -2.09724 19190 ft 366 kts 289°
2026-05-05 19:42 55.51236 -2.13959 18149 ft 363 kts 290°
2026-05-05 19:42 55.52124 -2.18010 17334 ft 352 kts 290°
2026-05-05 19:43 55.52973 -2.21926 16919 ft 333 kts 290°
2026-05-05 19:43 55.53767 -2.25654 16470 ft 316 kts 290°
2026-05-05 19:43 55.54535 -2.29318 15407 ft 320 kts 290°
2026-05-05 19:43 55.55301 -2.33012 14514 ft 320 kts 290°
2026-05-05 19:44 55.56071 -2.36734 13813 ft 317 kts 290°
2026-05-05 19:44 55.56818 -2.40359 13376 ft 318 kts 290°
2026-05-05 19:44 55.57585 -2.44077 12939 ft 318 kts 290°
2026-05-05 19:44 55.58331 -2.47695 12519 ft 317 kts 290°
2026-05-05 19:45 55.59095 -2.51410 12093 ft 316 kts 290°
2026-05-05 19:45 55.59827 -2.54994 11696 ft 314 kts 290°
2026-05-05 19:45 55.60574 -2.58649 11282 ft 310 kts 290°
2026-05-05 19:45 55.61296 -2.62184 11016 ft 302 kts 290°
2026-05-05 19:46 55.61992 -2.65593 10772 ft 295 kts 290°
2026-05-05 19:46 55.62689 -2.69007 10528 ft 288 kts 290°
2026-05-05 19:46 55.63362 -2.72305 10284 ft 282 kts 290°
2026-05-05 19:46 55.64021 -2.75535 10037 ft 276 kts 290°
2026-05-05 19:47 55.64668 -2.78716 9764 ft 274 kts 291°
2026-05-05 19:47 55.65307 -2.81869 9500 ft 271 kts 290°
2026-05-05 19:47 55.65938 -2.84995 9306 ft 269 kts 291°
2026-05-05 19:47 55.66566 -2.88103 9178 ft 268 kts 290°
2026-05-05 19:48 55.67194 -2.91209 9038 ft 268 kts 291°
2026-05-05 19:48 55.67819 -2.94308 8904 ft 267 kts 291°
2026-05-05 19:48 55.68443 -2.97414 8636 ft 269 kts 291°
2026-05-05 19:48 55.69072 -3.00545 8127 ft 270 kts 291°
2026-05-05 19:49 55.69691 -3.03641 7837 ft 265 kts 290°
2026-05-05 19:49 55.70095 -3.05668 7590 ft 263 kts 290°
2026-05-05 19:49 55.70904 -3.09736 7145 ft 259 kts 290°
2026-05-05 19:49 55.71352 -3.12802 7124 ft 263 kts 276°
2026-05-05 19:50 55.71352 -3.16047 7119 ft 264 kts 270°
2026-05-05 19:50 55.71283 -3.19297 7114 ft 265 kts 269°
2026-05-05 19:50 55.71214 -3.22570 7120 ft 265 kts 270°
2026-05-05 19:50 55.71141 -3.25839 7114 ft 265 kts 270°
2026-05-05 19:51 55.71057 -3.29133 7115 ft 264 kts 269°
2026-05-05 19:51 55.70979 -3.32337 6902 ft 262 kts 270°
2026-05-05 19:51 55.70887 -3.35546 6511 ft 260 kts 270°
2026-05-05 19:51 55.70796 -3.38747 6069 ft 259 kts 270°
2026-05-05 19:52 55.70722 -3.41934 5580 ft 260 kts 269°
2026-05-05 19:52 55.70655 -3.45165 5046 ft 264 kts 269°
2026-05-05 19:52 55.70595 -3.48435 4523 ft 267 kts 269°
2026-05-05 19:52 55.70541 -3.51734 4077 ft 268 kts 269°
2026-05-05 19:53 55.70499 -3.55001 4004 ft 257 kts 271°
2026-05-05 19:53 55.70806 -3.57952 4006 ft 234 kts 301°
2026-05-05 19:53 55.71802 -3.60021 4010 ft 214 kts 331°
2026-05-05 19:53 55.73106 -3.61291 4018 ft 211 kts 338°
2026-05-05 19:54 55.74428 -3.62387 4014 ft 209 kts 340°
2026-05-05 19:54 55.75743 -3.63475 4016 ft 208 kts 339°
2026-05-05 19:54 55.77056 -3.64556 4014 ft 208 kts 340°
2026-05-05 19:54 55.78368 -3.65654 4015 ft 208 kts 338°
2026-05-05 19:55 55.79680 -3.66728 4016 ft 208 kts 340°
2026-05-05 19:55 55.81000 -3.67776 4014 ft 207 kts 344°
2026-05-05 19:55 55.82390 -3.68188 4017 ft 199 kts
2026-05-05 19:55 55.83691 -3.67735 3975 ft 185 kts 25°
2026-05-05 19:56 55.84760 -3.66613 3813 ft 173 kts 43°
2026-05-05 19:56 55.85519 -3.65028 3628 ft 165 kts 60°
2026-05-05 19:56 55.86110 -3.63302 3432 ft 162 kts 59°
2026-05-05 19:56 55.86687 -3.61621 3225 ft 160 kts 60°
2026-05-05 19:57 55.87272 -3.59915 3000 ft 159 kts 61°
2026-05-05 19:57 55.87653 -3.58801 2854 ft 158 kts 61°
2026-05-05 19:57 55.88388 -3.56656 2570 ft 145 kts 62°
2026-05-05 19:57 55.88892 -3.55186 2380 ft 136 kts 62°
2026-05-05 19:58 55.89366 -3.53798 2191 ft 128 kts 63°
2026-05-05 19:58 55.89817 -3.52477 2006 ft 123 kts 63°
2026-05-05 19:58 55.90267 -3.51158 1835 ft 123 kts 63°
2026-05-05 19:58 55.90703 -3.49877 1669 ft 123 kts 63°
2026-05-05 19:59 55.91149 -3.48569 1502 ft 123 kts 62°
2026-05-05 19:59 55.91594 -3.47264 1323 ft 123 kts 62°
2026-05-05 19:59 55.92040 -3.45955 1131 ft 124 kts 62°
2026-05-05 19:59 55.92491 -3.44629 944 ft 126 kts 62°
2026-05-05 20:00 55.92941 -3.43308 761 ft 123 kts 62°
2026-05-05 20:00 55.93392 -3.41992 607 ft 123 kts 62°
2026-05-05 20:00 55.93837 -3.40704 408 ft 122 kts 64°
2026-05-05 20:00 55.94269 -3.39377 257 ft 124 kts 59°
2026-05-05 20:01 55.94723 -3.38070 147 ft 120 kts 63°
2026-05-05 20:01 55.95080 -3.37008 114 ft 64 kts 58°
2026-05-05 20:01 55.95219 -3.36613 112 ft 31 kts 59°
2026-05-05 20:01 55.95241 -3.36402 112 ft 14 kts 136°
2026-05-05 20:02 55.95179 -3.36333 115 ft 8 kts 148°
2026-05-05 20:02 55.95169 -3.36322 113 ft 2 kts 149°
2026-05-05 20:02 55.95128 -3.36308 114 ft 3 kts 212°
2026-05-05 20:02 55.95116 -3.36337 115 ft 2 kts 236°
2026-05-05 20:03 55.95109 -3.36359 114 ft 2 kts 238°
2026-05-05 20:03 55.95104 -3.36372 114 ft 2 kts 237°
2026-05-05 20:03 55.95073 -3.36403 116 ft 5 kts 181°
2026-05-05 20:03 55.95044 -3.36377 115 ft 4 kts 144°
2026-05-05 20:04 55.95022 -3.36349 112 ft 3 kts 147°
2026-05-05 20:04 55.95004 -3.36330 114 ft 3 kts 148°
2026-05-05 20:04 55.94990 -3.36314 112 ft 2 kts 148°
2026-05-05 20:04 55.94982 -3.36305 113 ft 1 kts 148°
2026-05-05 20:05 55.94980 -3.36302 113 ft 1 kts 149°
2026-05-05 20:05 55.94974 -3.36296 114 ft 1 kts 149°
2026-05-05 20:05 55.94967 -3.36289 114 ft 1 kts 149°
2026-05-05 20:05 55.94962 -3.36283 114 ft 0 kts 149°
2026-05-05 20:06 55.94961 -3.36282 114 ft 0 kts 149°